Location: Mahannah Oil Field
(37.4664°N, 96.6003°W)
Time: 08:34:04
(UTC+00:00)

Courier 1B - Pass Details

Date: 29 January 2021
Orbit: 962 x 1209 km, 28.3° (Epoch: 02 March)

Event Time Altitude Azimuth Distance (km) Brightness Sun altitude
Rises 05:20:42 0° 251° (WSW) 3,844 - -63.9°
Reaches altitude 10° 05:23:41 10° 244° (WSW) 2,849 - -64.3°
Maximum altitude 05:29:58 38° 178° (S) 1,480 - -65.2°
Drops below altitude 10° 05:35:58 10° 112° (ESE) 2,719 - -65.9°
Sets 05:38:45 0° 105° (ESE) 3,649 - -66.3°
